Fairfield, IA

5:52 AM CDT on August 24, 2016 (GMT -0500)
Fairfield Municipal

Weather History for KFFL - February, 2013

Change the Weather History Date:

Thursday, February 14, 2013

  Actual Average Record
Temperature  
Mean Temperature 36 °F -  
Max Temperature 41 °F 36 °F 61 °F (1984)
Min Temperature 28 °F 19 °F 3 °F (2007)
Degree Days  
Heating Degree Days 30    
Moisture  
Dew Point 29 °F    
Average Humidity 74    
Maximum Humidity 81    
Minimum Humidity 65    
Precipitation  
Precipitation 0.00 in - - ()
Sea Level Pressure  
Sea Level Pressure 29.90 in    
Wind  
Wind Speed 12 mph (WNW)    
Max Wind Speed 23 mph    
Max Gust Speed 26 mph    
Visibility 10 miles    
Events      
Averages and records for this station are not official NWS values.
T = Trace of Precipitation, MM = Missing Value Source: NWS Daily Summary

Daily Weather History Graph

Daily Weather History Graph

Search for Another Location

Airport or City:

Trip Planner

Search our weather history database for the weather conditions in past years. The results will help you decide how hot, cold, wet, or windy it might be!

Date:

Astronomy

Feb. 14, 2013 Rise Set
Actual Time 7:03 AM CST 5:41 PM CST
Civil Twilight 6:35 AM CST 6:09 PM CST
Nautical Twilight 6:02 AM CST 6:41 PM CST
Astronomical Twilight 5:30 AM CST 7:13 PM CST
Moon 9:02 AM CST (2/14) 10:47 PM CST (2/14)
Length of Visible Light 11h 34m
Length of Day
10h 38m
Waxing Crescent, 22% of the Moon is Illuminated
Feb 14
Waxing Crescent
Feb 17
First Quarter
Feb 25
Full
Mar 4
Last Quarter
Mar 11
New

Hourly Weather History & Observations

Time (CST) Temp. Windchill Dew Point Humidity Pressure Visibility Wind Dir Wind Speed Gust Speed Precip Events Conditions
12:15 AM 39.2 °F 33.6 °F 30.2 °F 70% 29.71 in 10.0 mi SW 8.1 mph - N/A   Overcast
12:35 AM 37.4 °F 30.8 °F 28.4 °F 70% 29.71 in 10.0 mi SW 9.2 mph - N/A   Scattered Clouds
12:55 AM 37.4 °F 31.4 °F 28.4 °F 70% 29.71 in 10.0 mi SW 8.1 mph - N/A   Clear
1:15 AM 37.4 °F 32.1 °F 28.4 °F 70% 29.71 in 10.0 mi SW 6.9 mph - N/A   Scattered Clouds
1:35 AM 37.4 °F 33.8 °F 28.4 °F 70% 29.72 in 10.0 mi SW 4.6 mph - N/A   Scattered Clouds
1:55 AM 35.6 °F 30.7 °F 28.4 °F 75% 29.72 in 10.0 mi SW 5.8 mph - N/A   Clear
2:15 AM 35.6 °F 29.2 °F 28.4 °F 75% 29.72 in 10.0 mi SW 8.1 mph - N/A   Clear
2:35 AM 35.6 °F 29.9 °F 28.4 °F 75% 29.73 in 10.0 mi WSW 6.9 mph - N/A   Clear
2:55 AM 35.6 °F 29.9 °F 28.4 °F 75% 29.73 in 10.0 mi WSW 6.9 mph - N/A   Clear
3:15 AM 35.6 °F 29.2 °F 28.4 °F 75% 29.73 in 10.0 mi WSW 8.1 mph - N/A   Clear
3:35 AM 35.6 °F 29.2 °F 28.4 °F 75% 29.73 in 10.0 mi West 8.1 mph - N/A   Clear
3:55 AM 35.6 °F 29.2 °F 28.4 °F 75% 29.72 in 10.0 mi West 8.1 mph - N/A   Clear
4:15 AM 35.6 °F 29.9 °F 28.4 °F 75% 29.73 in 10.0 mi West 6.9 mph - N/A   Clear
4:35 AM 35.6 °F 28.0 °F 28.4 °F 75% 29.73 in 10.0 mi West 10.4 mph - N/A   Clear
4:55 AM 35.6 °F 27.5 °F 28.4 °F 75% 29.74 in 10.0 mi West 11.5 mph - N/A   Clear
5:15 AM 37.4 °F 28.2 °F 28.4 °F 70% 29.75 in 10.0 mi West 16.1 mph 19.6 mph N/A   Clear
5:35 AM 35.6 °F 25.5 °F 30.2 °F 81% 29.76 in 10.0 mi WNW 17.3 mph 23.0 mph N/A   Scattered Clouds
5:55 AM 35.6 °F 26.2 °F 30.2 °F 81% 29.77 in 10.0 mi WNW 15.0 mph - N/A   Mostly Cloudy
6:15 AM 35.6 °F 25.9 °F 30.2 °F 81% 29.78 in 10.0 mi WNW 16.1 mph 20.7 mph N/A   Overcast
6:35 AM 35.6 °F 25.9 °F 28.4 °F 75% 29.79 in 10.0 mi WNW 16.1 mph 20.7 mph N/A   Overcast
6:55 AM 35.6 °F 25.9 °F 28.4 °F 75% 29.80 in 10.0 mi WNW 16.1 mph 24.2 mph N/A   Overcast
7:15 AM 35.6 °F 25.5 °F 28.4 °F 75% 29.80 in 10.0 mi WNW 17.3 mph 24.2 mph N/A   Overcast
7:35 AM 35.6 °F 25.5 °F 30.2 °F 81% 29.82 in 10.0 mi WNW 17.3 mph 23.0 mph N/A   Overcast
7:55 AM 35.6 °F 25.5 °F 28.4 °F 75% 29.83 in 10.0 mi NW 17.3 mph 25.3 mph N/A   Overcast
8:15 AM 35.6 °F 26.2 °F 28.4 °F 75% 29.84 in 10.0 mi WNW 15.0 mph 21.9 mph N/A   Overcast
8:35 AM 35.6 °F 24.0 °F 28.4 °F 75% 29.85 in 10.0 mi WNW 23.0 mph 26.5 mph N/A   Overcast
8:55 AM 35.6 °F 25.9 °F 28.4 °F 75% 29.87 in 10.0 mi WNW 16.1 mph 23.0 mph N/A   Overcast
9:15 AM 35.6 °F 25.5 °F 28.4 °F 75% 29.88 in 10.0 mi WNW 17.3 mph 24.2 mph N/A   Overcast
9:35 AM 35.6 °F 25.5 °F 28.4 °F 75% 29.89 in 10.0 mi WNW 17.3 mph - N/A   Overcast
9:55 AM 35.6 °F 25.5 °F 28.4 °F 75% 29.90 in 10.0 mi WNW 17.3 mph 25.3 mph N/A   Overcast
10:15 AM 35.6 °F 25.5 °F 30.2 °F 81% 29.91 in 10.0 mi West 17.3 mph 20.7 mph N/A   Overcast
10:35 AM 37.4 °F 27.8 °F 30.2 °F 75% 29.90 in 10.0 mi West 17.3 mph 24.2 mph N/A   Overcast
10:55 AM 37.4 °F 27.8 °F 30.2 °F 75% 29.90 in 10.0 mi WNW 17.3 mph 26.5 mph N/A   Overcast
11:15 AM 37.4 °F 28.2 °F 30.2 °F 75% 29.90 in 10.0 mi WNW 16.1 mph 23.0 mph N/A   Overcast
11:35 AM 37.4 °F 28.9 °F 30.2 °F 75% 29.91 in 10.0 mi WNW 13.8 mph 23.0 mph N/A   Overcast
11:55 AM 37.4 °F 28.9 °F 30.2 °F 75% 29.92 in 10.0 mi WNW 13.8 mph 23.0 mph N/A   Overcast
12:15 PM 37.4 °F 27.5 °F 28.4 °F 70% 29.92 in 10.0 mi WNW 18.4 mph 23.0 mph N/A   Overcast
12:35 PM 37.4 °F 28.9 °F 30.2 °F 75% 29.93 in 10.0 mi WNW 13.8 mph 21.9 mph N/A   Overcast
12:55 PM 37.4 °F 27.5 °F 30.2 °F 75% 29.93 in 10.0 mi WNW 18.4 mph - N/A   Overcast
1:15 PM 37.4 °F 29.8 °F 30.2 °F 75% 29.93 in 10.0 mi WNW 11.5 mph 24.2 mph N/A   Overcast
1:35 PM 41.0 °F 33.9 °F 30.2 °F 65% 29.93 in 10.0 mi West 12.7 mph 18.4 mph N/A   Mostly Cloudy
1:55 PM 41.0 °F 32.5 °F 32.0 °F 70% 29.93 in 10.0 mi WNW 17.3 mph 20.7 mph N/A   Scattered Clouds
2:15 PM 41.0 °F 32.5 °F 30.2 °F 65% 29.93 in 10.0 mi WNW 17.3 mph 21.9 mph N/A   Mostly Cloudy
2:35 PM 41.0 °F 32.8 °F 30.2 °F 65% 29.95 in 10.0 mi West 16.1 mph 23.0 mph N/A   Mostly Cloudy
2:55 PM 41.0 °F 32.8 °F 30.2 °F 65% 29.96 in 10.0 mi West 16.1 mph 19.6 mph N/A   Mostly Cloudy
3:15 PM 41.0 °F 33.9 °F 30.2 °F 65% 29.96 in 10.0 mi WNW 12.7 mph 20.7 mph N/A   Overcast
3:35 PM 41.0 °F 34.7 °F 30.2 °F 65% 29.95 in 10.0 mi WNW 10.4 mph - N/A   Mostly Cloudy
3:55 PM 41.0 °F 35.8 °F 30.2 °F 65% 29.96 in 10.0 mi WNW 8.1 mph - N/A   Overcast
4:15 PM 41.0 °F 36.4 °F 30.2 °F 65% 29.96 in 10.0 mi WNW 6.9 mph - N/A   Overcast
4:35 PM 39.2 °F 30.2 °F 30.2 °F 70% 29.97 in 10.0 mi WNW 17.3 mph - N/A   Drizzle
4:55 PM 39.2 °F 33.6 °F 32.0 °F 75% 29.97 in 10.0 mi West 8.1 mph - N/A   Overcast
5:15 PM 39.2 °F 32.5 °F 30.2 °F 70% 29.97 in 10.0 mi West 10.4 mph - N/A   Mostly Cloudy
5:35 PM 39.2 °F 32.5 °F 30.2 °F 70% 29.99 in 10.0 mi WNW 10.4 mph - N/A   Overcast
5:55 PM 37.4 °F 30.8 °F 30.2 °F 75% 29.99 in 10.0 mi WNW 9.2 mph - N/A   Overcast
6:15 PM 37.4 °F 32.1 °F 30.2 °F 75% 30.00 in 10.0 mi West 6.9 mph - N/A   Mostly Cloudy
6:35 PM 35.6 °F 29.9 °F 28.4 °F 75% 30.01 in 10.0 mi WNW 6.9 mph - N/A   Scattered Clouds
6:55 PM 35.6 °F 25.5 °F 28.4 °F 75% 30.02 in 10.0 mi WNW 17.3 mph 20.7 mph N/A   Mostly Cloudy
7:15 PM 35.6 °F 27.5 °F 28.4 °F 75% 30.02 in 10.0 mi WNW 11.5 mph - N/A   Scattered Clouds
7:35 PM 33.8 °F 23.9 °F 28.4 °F 81% 30.03 in 10.0 mi NW 15.0 mph - N/A   Scattered Clouds
7:55 PM 33.8 °F 23.5 °F 28.4 °F 81% 30.02 in 10.0 mi WNW 16.1 mph 23.0 mph N/A   Mostly Cloudy
8:15 PM 33.8 °F 24.8 °F 26.6 °F 75% 30.03 in 10.0 mi NW 12.7 mph - N/A   Mostly Cloudy
8:35 PM 33.8 °F 23.9 °F 26.6 °F 75% 30.04 in 10.0 mi NW 15.0 mph - N/A   Scattered Clouds
8:55 PM 33.8 °F 24.3 °F 28.4 °F 81% 30.05 in 10.0 mi NW 13.8 mph - N/A   Mostly Cloudy
9:15 PM 33.8 °F 24.8 °F 26.6 °F 75% 30.06 in 10.0 mi NW 12.7 mph - N/A   Overcast
9:35 PM 32.0 °F 22.5 °F 26.6 °F 80% 30.07 in 10.0 mi NW 12.7 mph - N/A   Overcast
9:55 PM 32.0 °F 22.5 °F 26.6 °F 80% 30.07 in 10.0 mi NW 12.7 mph 19.6 mph N/A   Overcast
10:15 PM 32.0 °F 20.8 °F 24.8 °F 75% 30.07 in 10.0 mi NW 17.3 mph 23.0 mph N/A   Scattered Clouds
10:35 PM 30.2 °F 20.2 °F 24.8 °F 80% 30.09 in 10.0 mi NW 12.7 mph - N/A   Scattered Clouds
10:55 PM 30.2 °F 18.5 °F 24.8 °F 80% 30.09 in 10.0 mi NW 17.3 mph 20.7 mph N/A   Mostly Cloudy
11:15 PM 30.2 °F 19.3 °F 24.8 °F 80% 30.10 in 10.0 mi NW 15.0 mph 21.9 mph N/A   Overcast
11:35 PM 30.2 °F 18.9 °F 24.8 °F 80% 30.10 in 10.0 mi NW 16.1 mph 24.2 mph N/A   Overcast
11:55 PM 28.4 °F 15.8 °F 23.0 °F 80% 30.11 in 10.0 mi NNW 18.4 mph 23.0 mph N/A   Mostly Cloudy